Location: Bottenau
(48.5138°N, 8.0462°E)
Time: 09:29:01
(UTC+00:00)

Cosmos 1570 Rocket - Pass Details

Date: 18 April 2021
Orbit: 763 x 788 km, 74.1° (Epoch: 05 May)

Event Time Altitude Azimuth Distance (km) Brightness Sun altitude
Rises 22:22:14 0° 337° (NNW) 3,274 8.5 -28.6°
Reaches altitude 10° 22:24:38 10° 339° (NNW) 2,338 7.5 -28.8°
Enters shadow 22:29:20 68° 4° (N) 834 4.2 -29.0°
